[[{"header":{"parameterUnit":"m.s-1","parameterCategory":1,"la1":30.2991,"la2":30.254,"lo1":-89.0895,"lo2":-89.0444,"dy":0.0017,"dx":0.0017,"nx":28,"ny":28,"refTime":"2024-03-16T21:00:00:Z","depth":0,"parameterNumber":2,"parameterNumberName":"U-component_of_WINDS"},"data":[0,0,0,0,0,0,0,0,0,0,0,0,0,0,0,0,0,0,0,0,0,0,0,0,0,0,0,0,0,0,0,0,0,0,0,0,0,0,0,0,0,0,0,0,0,0,0,0,0,0,0,0,0,0,0,0,0,0,-0.7326,-0.7325,0,-0.7241,-0.724,-0.7239,-0.7159,-0.7158,-0.7158,-0.7157,-0.7068,-0.7067,-0.7065,0,0,0,0,0,0,0,0,0,0,0,0,0,-0.742,-0.7418,-0.7326,-0.7325,-0.7323,-0.7241,-0.724,-0.7239,-0.716,-0.7158,-0.7157,-0.7156,-0.7069,-0.7067,-0.7065,0,0,0,0,0,0,0,0,0,0,0,0,0,-0.7361,-0.7418,-0.7326,-0.7274,-0.7269,-0.7241,-0.724,-0.7238,-0.716,-0.7158,-0.7157,-0.7156,-0.7069,-0.7067,-0.7065,-0.7081,0,0,-0.7058,-0.7057,0,0,0,0,0,0,0,0,-0.7365,-0.7358,-0.7283,-0.7278,-0.7272,-0.7209,-0.724,-0.7186,-0.716,-0.7201,-0.7157,-0.7155,-0.7116,-0.711,-0.7097,-0.7077,-0.7073,-0.7058,-0.7057,-0.7056,-0.7055,0,0,0,0,0,0,0,-0.7369,-0.7361,-0.7292,-0.7282,-0.7275,-0.7255,-0.7246,-0.723,-0.7168,-0.7197,-0.7192,-0.7183,-0.7113,-0.71,-0.7095,-0.7072,-0.7058,-0.7056,-0.7055,-0.7054,-0.7063,-0.7065,0,0,0,0,0,0,-0.7381,-0.7365,-0.7295,-0.7289,-0.7316,-0.7255,-0.7244,-0.7231,-0.7168,-0.7157,-0.7184,-0.7179,-0.7104,-0.7097,-0.7091,-0.7107,-0.7056,-0.7054,-0.7053,-0.7062,-0.7064,-0.7065,0,0,0,0,0,0,-0.7383,-0.7375,-0.7298,-0.7326,-0.7314,-0.7255,-0.7241,-0.723,-0.7216,-0.7158,-0.7146,-0.7182,-0.7103,-0.7094,-0.7085,-0.7103,-0.7053,-0.7051,-0.706,-0.7062,-0.7064,-0.7139,0,0,0,0,0,0,-0.7386,-0.7377,-0.7382,-0.7326,-0.7313,-0.7293,-0.7242,-0.7229,-0.7213,-0.7206,-0.7153,-0.7142,-0.7101,-0.7089,-0.7083,-0.7099,-0.7049,-0.7058,-0.7061,-0.7064,-0.7135,-0.7144,-0.7152,0,0,0,0,0,-0.739,-0.7405,-0.7382,-0.7374,-0.7318,-0.7294,-0.7287,-0.7239,-0.7215,-0.722,-0.7183,-0.7144,-0.7103,-0.7088,-0.7081,-0.7097,-0.7056,-0.706,-0.7063,-0.7131,-0.7142,-0.7151,0,0,0,0,0,0,-0.7463,-0.7397,-0.7371,-0.7369,-0.7338,-0.7281,-0.7285,-0.7252,-0.7226,-0.7221,-0.7163,-0.7151,-0.7149,-0.7122,-0.7107,-0.7111,-0.7074,-0.7077,-0.7128,-0.7138,-0.7146,-0.7153,-0.7047,0,0,0,0,0,-0.7479,-0.7465,-0.7408,-0.7412,-0.7398,-0.7345,-0.7332,-0.7299,-0.7264,-0.7251,-0.7212,-0.718,-0.716,-0.7148,-0.7125,-0.7131,-0.7119,-0.7139,-0.7147,-0.7155,-0.7157,-0.716,-0.7169,-0.7077,-0.7077,-0.7076,0,0,-0.7512,-0.7474,-0.7468,-0.7426,-0.7398,-0.7385,-0.7334,-0.7322,-0.7312,-0.7248,-0.7238,-0.7209,-0.7169,-0.7168,-0.7166,-0.7146,-0.718,-0.7159,-0.7165,-0.7163,-0.7164,-0.7173,-0.7181,-0.7079,-0.7078,-0.7078,0,0,-0.7565,-0.7535,-0.7535,-0.7509,-0.7468,-0.7433,-0.7434,-0.7383,-0.7362,-0.735,-0.7303,-0.7291,-0.7256,-0.7231,-0.7213,-0.7261,-0.7225,-0.7256,-0.7299,-0.7302,-0.731,-0.7316,-0.7334,-0.7341,-0.7258,-0.7258,-0.7259,0,-0.761,-0.7589,-0.754,-0.7532,-0.7515,-0.7458,-0.7459,-0.7436,-0.739,-0.738,-0.7359,-0.7317,-0.7286,-0.7279,-0.7291,-0.7279,-0.7278,-0.7261,-0.7313,-0.7318,-0.7323,-0.734,-0.7347,-0.7262,-0.7262,-0.7262,-0.7261,0,-0.7648,-0.7634,-0.764,-0.7599,-0.7583,-0.7579,-0.753,-0.752,-0.7489,-0.7457,-0.7447,-0.7409,-0.7379,-0.7375,-0.7343,-0.7365,-0.7354,-0.7324,-0.7285,-0.7337,-0.7352,-0.7358,-0.7268,-0.7267,-0.7266,-0.7265,0,0,-0.7742,-0.7676,-0.7679,-0.766,-0.7613,-0.7601,-0.7597,-0.7569,-0.7562,-0.7533,-0.7528,-0.7502,-0.7475,-0.7455,-0.7421,-0.7424,-0.7467,-0.7394,-0.7392,-0.7409,-0.7489,-0.7513,-0.7521,-0.7443,-0.7444,-0.7445,-0.7493,0,-0.7787,-0.7775,-0.7732,-0.7733,-0.7721,-0.7668,-0.7664,-0.7635,-0.7606,-0.7592,-0.7559,-0.7542,-0.7507,-0.7495,-0.7496,-0.7461,-0.7482,-0.7457,-0.7438,-0.7438,-0.745,-0.7528,-0.7552,-0.7599,-0.7498,-0.7499,-0.75,0,-0.7837,-0.7814,-0.7814,-0.777,-0.7763,-0.776,-0.7733,-0.7719,-0.7686,-0.7665,-0.7645,-0.7608,-0.7601,-0.7566,-0.7556,-0.7541,-0.7531,-0.7513,-0.7514,-0.751,-0.7472,-0.7527,-0.7613,-0.762,-0.7508,-0.7508,-0.7507,0,-0.7908,-0.7876,-0.7872,-0.7858,-0.7806,-0.7805,-0.7783,-0.7749,-0.7736,-0.7712,-0.7703,-0.7679,-0.7666,-0.7648,-0.7606,-0.7584,-0.7601,-0.7563,-0.7584,-0.7585,-0.7589,-0.7589,-0.7675,-0.7583,-0.7583,-0.7583,-0.7582,0,-0.7963,-0.7965,-0.7903,-0.7901,-0.7903,-0.7854,-0.7858,-0.7831,-0.7801,-0.7794,-0.7747,-0.7741,-0.7685,-0.7673,-0.764,-0.7638,-0.7632,-0.7615,-0.7606,-0.7619,-0.7622,-0.7611,-0.7607,-0.7584,-0.7584,-0.7584,-0.7583,0,-0.804,-0.7999,-0.7992,-0.7944,-0.7932,-0.7936,-0.7895,-0.7892,-0.7861,-0.7852,-0.7847,-0.7799,-0.7782,-0.7739,-0.7711,-0.7689,-0.7696,-0.7679,-0.7708,-0.7702,-0.7726,-0.7725,-0.7808,-0.7817,-0.772,-0.7721,-0.7721,0,-0.8078,-0.8079,-0.8032,-0.8024,-0.8005,-0.7992,-0.798,-0.7933,-0.7921,-0.7886,-0.7887,-0.7867,-0.7849,-0.7826,-0.7788,-0.7767,-0.775,-0.7781,-0.7746,-0.776,-0.7751,-0.7752,-0.7753,-0.7788,-0.7789,-0.779,-0.7791,0,-0.815,-0.813,-0.8113,-0.8091,-0.8078,-0.8058,-0.8035,-0.8031,-0.7978,-0.7968,-0.7952,-0.7938,-0.7911,-0.7893,-0.7867,-0.7844,-0.781,-0.7803,-0.7807,-0.782,-0.7837,-0.7829,-0.7729,-0.7801,-0.78,-0.7799,-0.7799,-0.7798,-0.8208,-0.8208,-0.8176,-0.816,-0.8138,-0.8119,-0.8114,-0.8084,-0.807,-0.8044,-0.8018,-0.8005,-0.7974,-0.7936,-0.7917,-0.7906,-0.7888,-0.7893,-0.7895,-0.7897,-0.7903,-0.7839,-0.7901,-0.7901,-0.7901,-0.79,-0.79,0,-0.8278,-0.8256,-0.8242,-0.8213,-0.8201,-0.8171,-0.8145,-0.8137,-0.8126,-0.8101,-0.8085,-0.8068,-0.805,-0.8013,-0.7993,-0.7992,-0.7976,-0.7988,-0.7988,-0.7984,-0.792,-0.792,-0.8002,-0.8002,-0.8002,-0.8002,-0.8002,-0.8002,-0.8313,-0.8311,-0.8289,-0.8277,-0.8254,-0.8241,-0.823,-0.8212,-0.8192,-0.8175,-0.8161,-0.8137,-0.8107,-0.8085,-0.8069,-0.8058,-0.8053,-0.8071,-0.8056,-0.7997,-0.7988,-0.7978,-0.7977,-0.807,-0.807,-0.8119,-0.812,-0.812]},{"header":{"parameterUnit":"m.s-1","parameterCategory":1,"la1":30.2991,"la2":30.254,"lo1":-89.0895,"lo2":-89.0444,"dy":0.0017,"dx":0.0017,"nx":28,"ny":28,"refTime":"2024-03-16T21:00:00:Z","depth":0,"parameterNumber":3,"parameterNumberName":"V-component_of_WINDS"},"data":[0,0,0,0,0,0,0,0,0,0,0,0,0,0,0,0,0,0,0,0,0,0,0,0,0,0,0,0,0,0,0,0,0,0,0,0,0,0,0,0,0,0,0,0,0,0,0,0,0,0,0,0,0,0,0,0,0,0,2.0109,2.0109,0,2.011,2.011,2.011,2.0096,2.0096,2.0095,2.0095,2.0094,2.0094,2.0094,0,0,0,0,0,0,0,0,0,0,0,0,0,2.009,2.0091,2.0109,2.0109,2.0109,2.011,2.011,2.011,2.0096,2.0096,2.0095,2.0095,2.0094,2.0094,2.0094,0,0,0,0,0,0,0,0,0,0,0,0,0,2.0096,2.0091,2.0109,2.0102,2.0102,2.011,2.011,2.011,2.0096,2.0096,2.0095,2.0095,2.0094,2.0094,2.0094,2.0108,0,0,2.0096,2.0096,0,0,0,0,0,0,0,0,2.0095,2.0096,2.0103,2.0103,2.0102,2.0102,2.0103,2.0109,2.0097,2.0098,2.0095,2.0094,2.0097,2.0097,2.0098,2.0108,2.0108,2.0096,2.0096,2.0096,2.0097,0,0,0,0,0,0,0,2.0095,2.0096,2.0109,2.0103,2.0103,2.0098,2.0098,2.0104,2.0101,2.0098,2.0097,2.0098,2.0096,2.0098,2.0098,2.0108,2.0096,2.0096,2.0097,2.0097,2.0126,2.0127,0,0,0,0,0,0,2.0096,2.0096,2.0109,2.0109,2.0097,2.0099,2.0099,2.0103,2.0101,2.01,2.0098,2.0097,2.0098,2.0098,2.0098,2.0112,2.0096,2.0097,2.0097,2.0126,2.0126,2.0127,0,0,0,0,0,0,2.0096,2.0097,2.0109,2.0102,2.0104,2.01,2.0104,2.0103,2.0105,2.0101,2.01,2.0101,2.0097,2.0098,2.0105,2.0112,2.0097,2.0097,2.0125,2.0126,2.0127,2.0142,0,0,0,0,0,0,2.0095,2.0097,2.0104,2.0103,2.0104,2.0118,2.0105,2.0104,2.0106,2.0104,2.0103,2.0102,2.0097,2.0105,2.0106,2.0112,2.0098,2.0125,2.0126,2.0126,2.0141,2.0143,2.0145,0,0,0,0,0,2.0095,2.0108,2.0104,2.0106,2.0112,2.0118,2.0119,2.0114,2.0107,2.0112,2.0109,2.0102,2.0111,2.0106,2.0107,2.0114,2.0124,2.0125,2.0126,2.014,2.0143,2.0145,0,0,0,0,0,0,2.011,2.0108,2.0104,2.0118,2.0118,2.0116,2.0123,2.0117,2.0119,2.0118,2.011,2.011,2.0118,2.0117,2.0111,2.0125,2.0116,2.0118,2.0126,2.0129,2.0131,2.013,2.0098,0,0,0,0,0,2.0115,2.0122,2.0119,2.0131,2.0132,2.0127,2.013,2.0125,2.0126,2.0126,2.0123,2.0123,2.0125,2.0127,2.0129,2.0141,2.0139,2.0145,2.0148,2.0149,2.015,2.0154,2.0156,2.0131,2.0131,2.0131,0,0,2.0126,2.0125,2.013,2.0134,2.0134,2.0139,2.0128,2.0134,2.0137,2.0126,2.0133,2.0131,2.013,2.0139,2.0143,2.0138,2.0157,2.0151,2.0152,2.0152,2.0155,2.0157,2.0159,2.0131,2.0131,2.0131,0,0,2.0147,2.0148,2.0157,2.0157,2.0157,2.0154,2.0156,2.0154,2.0152,2.0159,2.0151,2.0153,2.0159,2.0157,2.0157,2.0175,2.0168,2.0176,2.0187,2.019,2.0192,2.0194,2.0198,2.02,2.0177,2.0177,2.0177,0,2.016,2.0168,2.0163,2.0169,2.017,2.0161,2.0168,2.0168,2.0169,2.0169,2.0164,2.0169,2.0167,2.0175,2.0179,2.018,2.018,2.0176,2.0193,2.0194,2.0196,2.02,2.0202,2.0178,2.0178,2.0178,2.0178,0,2.0182,2.0188,2.0195,2.0195,2.0197,2.0205,2.0199,2.0201,2.0196,2.0192,2.0198,2.0196,2.0196,2.0198,2.0193,2.0204,2.02,2.0194,2.0185,2.0199,2.0203,2.0204,2.018,2.0179,2.0179,2.0179,0,0,2.0214,2.021,2.0213,2.0212,2.021,2.0213,2.0219,2.022,2.0221,2.0221,2.0224,2.0228,2.0221,2.0221,2.0216,2.0219,2.023,2.0212,2.0212,2.0214,2.0239,2.0243,2.0245,2.0226,2.0226,2.0226,2.0239,0,2.0233,2.0243,2.0237,2.0247,2.0251,2.0241,2.0245,2.0244,2.024,2.0242,2.0237,2.0239,2.0232,2.0231,2.0234,2.0229,2.0235,2.0228,2.0227,2.0227,2.0226,2.0247,2.0252,2.0264,2.024,2.024,2.0241,0,2.0256,2.0257,2.0268,2.0263,2.0264,2.0269,2.0267,2.027,2.0267,2.0264,2.0263,2.0256,2.0259,2.025,2.0253,2.0248,2.0247,2.0245,2.0245,2.0244,2.0234,2.0245,2.0267,2.0269,2.0243,2.0243,2.0243,0,2.0275,2.0279,2.0285,2.0285,2.0281,2.0283,2.0281,2.0278,2.0278,2.0277,2.0276,2.0276,2.0275,2.0273,2.0266,2.026,2.0269,2.026,2.0265,2.0265,2.0266,2.0266,2.0287,2.0268,2.0268,2.0268,2.0268,0,2.0296,2.0302,2.0293,2.0297,2.0303,2.0296,2.0301,2.0298,2.0295,2.0297,2.0288,2.0289,2.028,2.028,2.0274,2.0276,2.0276,2.0272,2.027,2.0272,2.0273,2.0271,2.027,2.0268,2.0268,2.0268,2.0268,0,2.0318,2.0313,2.0318,2.0313,2.0312,2.0316,2.0311,2.0313,2.0309,2.0311,2.0311,2.0303,2.0302,2.0295,2.0292,2.0288,2.0292,2.0289,2.0293,2.0292,2.0296,2.0295,2.0316,2.0318,2.0299,2.0299,2.0299,0,2.0331,2.0336,2.0331,2.0331,2.033,2.0331,2.0331,2.0323,2.0323,2.0319,2.0321,2.032,2.0318,2.0317,2.031,2.0308,2.0304,2.0311,2.0303,2.0304,2.0302,2.0301,2.0301,2.0313,2.0313,2.0313,2.0313,0,2.0354,2.035,2.0351,2.035,2.035,2.0349,2.0347,2.0347,2.0339,2.0339,2.0338,2.0336,2.0333,2.0331,2.0328,2.0324,2.0316,2.0316,2.0316,2.0318,2.0319,2.0317,2.0296,2.0315,2.0315,2.0315,2.0315,2.0315,2.037,2.0373,2.0369,2.0369,2.0367,2.0365,2.0366,2.0362,2.0361,2.0358,2.0354,2.0353,2.0348,2.0342,2.0339,2.0337,2.0333,2.0334,2.0334,2.0335,2.0335,2.0321,2.0336,2.0336,2.0336,2.0336,2.0336,0,2.0391,2.0388,2.0388,2.0385,2.0385,2.0379,2.0376,2.0375,2.0375,2.0371,2.037,2.0368,2.0365,2.0358,2.0354,2.0354,2.0351,2.0353,2.0353,2.0352,2.034,2.0339,2.0356,2.0356,2.0356,2.0356,2.0356,2.0356,2.0401,2.0405,2.0401,2.0402,2.0399,2.0398,2.0397,2.0394,2.0391,2.0389,2.0387,2.0383,2.0377,2.0373,2.037,2.0367,2.0366,2.037,2.0366,2.0355,2.0353,2.0351,2.035,2.037,2.037,2.0378,2.0378,2.0378]}]]